OPS 4682 DEB, 38419

Orbit data source: Space-Track

OPS 4682 DEB, 38419 is space debris in LEO originally from a launch on Sat, 03 Apr 1965 UTC launched from the Air Force Western Test Range (AFWTR). Debris objects in space refer to the collection of defunct objects orbiting the Earth. Examples of debris include non-operational satellites, rocket bodies, and fragments generated from explosions, collisions, or faulty payload assembly.

Loading next visibility...
Identifier
38419, 1965-027DY
Orbit
LEO
Country
Flag of USUS
Related business
Manufacturer
Unknown
Mission
Spacecraft
Bus & Motor
Unknown
Mass
Unknown
Launch date (UTC)
1965-04-03 (61 years ago)
Launch vehicle
Unknown
Launch site
Air Force Western Test Range (AFWTR)
Object type
Payload
Rocket body
Debris
Shape & HBR
Unknown shape, 0.1 m
Radar Cross Section
Small (<0.1 m²)

Expand to show TLE details & history
Last TLE update: 2 days ago

TLE from 2 days ago
0 OPS 4682 DEB
1 38419U 65027DY  26103.01427184  .00000329  00000-0  11425-2 0  9993
2 38419  90.2446   4.3855 0031891 352.0943   7.9670 12.95125967292633
Epoch: 2026-04-13T00:20Z
TLE epoch observation values (Epoch: 2026-04-13T00:20:33.086Z)
Latitude
-0.00001°
Longitude
158.03668°
Altitude
1,259.926 km
Speed
7.237 km/s
True Right ascension
00h 17m 32s
True Declination
0° 00' 00"
Sunlit
Object was in daylight at epoch
Visualization orbit readout
Latitude
Unknown
Longitude
Unknown
Altitude
Unknown
Speed
Unknown
Apparent Right ascension
Unknown
Apparent Declination
Unknown
Sunlit
N/A
Visualization observer readout
Local Sidereal Time
02:43:47
Azimuth
Unknown
Elevation
Unknown
Doppler factor
Unknown
Orbital elements
Apogee altitude
1,302.795 km
Perigee altitude
1,253.96 km
Semi-major axis
7,656.514 km
Eccentricity
0.00319
Inclination
90.2446°
RAAN
4.3855°
Arg. of periapsis
352.0943°
True anomaly
8.01785°
Mean anomaly
7.967°
Eccentric anomaly
7.99241°
Mean motion
3.23964 °/min
Orbital period
111.12 mins
BSTAR
0.0011425
Loading maneuver chart data...
Computing Atmospheric mass density...
Loading historical data...
Loading historical data...
Loading historical data...
Loading historical data...
Loading historical data...
Loading historical data...
Loading historical data...

Documentation

Showing up to 5 results
|